Regional Weather Roundup
Issued by NWS

Home | Current Version | Previous Version | Graphics & Text | Print | Product List | Glossary On
Versions: 1 2 3 4 5 6 7 8 9 10 11 12 13 14 15 16 17 18 19 20 21 22 23 24 25 26 27 28 29 30 31 32 33 34 35 36 37 38 39 40 41 42 43 44 45 46 47 48 49 50
000
ASUS43 KDTX 211101
RWRMI
MICHIGAN HOURLY REGIONAL WEATHER ROUNDUP
NATIONAL WEATHER SERVICE DETROIT/PONTIAC MI
600 AM EST TUE FEB 21 2017

NOTE: "FAIR" INDICATES FEW OR NO CLOUDS BELOW 12,000 FEET WITH NO
SIGNIFICANT WEATHER AND/OR OBSTRUCTION TO VISIBILITY.

MIZ047>049-052>055-059>063-066>070-074>076-081>083-211200-
SOUTHEAST LOWER MICHIGAN

CITY           SKY/WX    TMP DP  RH WIND       PRES   REMARKS
ADRIAN         CLOUDY    36  34  92 CALM      29.99F
ALMA           CLOUDY    42  35  74 S3        29.92F
ANN ARBOR      CLOUDY    37  32  82 CALM      29.99F
BAD AXE        CLOUDY    38  29  71 S14       29.96S WCI  29
CARO           CLOUDY    45  33  64 S8G17     29.94R
DETROIT CITY   CLOUDY    37  32  82 CALM      30.00S
DETROIT        CLOUDY    39  32  76 CALM      30.01S
FLINT          CLOUDY    44  35  70 S9        29.95F
GROSSE ILE     CLOUDY    39  33  80 CALM      29.99F
HILLSDALE      CLOUDY    41  36  81 S9        29.95F
HOWELL         PTCLDY    42  33  72 SE9       29.96F

CITY           SKY/WX    TMP DP  RH WIND       PRES   REMARKS
JACKSON        CLOUDY    43  35  73 S6        29.96F
LAMBERTVILLE   CLOUDY    38  34  86 CALM      30.00R
LANSING        CLOUDY    46  35  65 S10       29.94F
LAPEER         MOCLDY    42  32  68 S6        29.98R
MASON          CLOUDY    43  37  78 S10       29.95F
MONROE         CLOUDY    37  34  90 CALM      30.00R
MT. CLEMENS    CLOUDY    35  34  94 CALM      29.99S
PONTIAC        CLOUDY    37  30  75 SE3       29.97F
PORT HOPE        N/A     38  28  67 S10G18    29.91F WCI  31
PORT HURON     CLOUDY    37  30  75 SW3       30.02R
TRI CITIES     CLOUDY    43  35  73 S10G20    29.93F
MIDLAND        CLOUDY    42  31  65 S5        29.92S
TROY           CLOUDY    38  30  72 CALM      30.02F
SAGINAW HB     CLOUDY    45  32  61 S12       29.92F
$$
MIZ043>046-050>051-056>058-064>065-071>073-077>080-211200-
SOUTHWEST LOWER MICHIGAN

CITY           SKY/WX    TMP DP  RH WIND       PRES   REMARKS
BATTLE CREEK   PTCLDY    49  40  71 S9        29.94F
BENTON HARBOR  CLOUDY    57  45  64 S8        29.93R
BIG RAPIDS     MIX PCPN  44  37  75 CALM      29.89F
COLDWATER      CLOUDY    48  39  71 S6        29.96S
FREMONT        RAIN      47  44  91 S3        29.89S
HOLLAND        LGT RAIN  56  46  69 S14G21    29.91S
GRAND RAPIDS   CLOUDY    50  39  66 S14       29.92R
IONIA          FAIR      45  37  72 S8        29.92S
KALAMAZOO      CLOUDY    48  38  68 S8        29.94S
LUDINGTON      DRIZZLE   49  48  97 SW7       29.86R
MARSHALL       CLOUDY    48  38  68 S7        29.94S
MOUNT PLEASANT CLOUDY    41  33  73 CALM      29.91F
MUSKEGON       LGT RAIN  50  46  86 S14       29.89R
SOUTH HAVEN    CLOUDY    56  45  67 SW8       29.92S
$$
MIZ016>042-211200-
NORTHERN LOWER MICHIGAN

CITY           SKY/WX    TMP DP  RH WIND       PRES   REMARKS
ALPENA         CLOUDY    41  31  67 S9        29.87F
BEAVER ISLAND  LGT RAIN  44  41  88 S13G22    29.75S
BELLAIRE       LGT RAIN  44  41  87 S9        29.83F
CADILLAC       RAIN      41  38  89 S8        29.86S
CHARLEVOIX     LGT RAIN  45  41  85 S14G22    29.81F
FRANKFORT      CLOUDY    49  47  94 S7        29.81R
GAYLORD        LGT RAIN  42  34  73 S14       29.83F
GRAYLING       LGT RAIN  42  34  73 S8        29.88S
HARBOR SPRINGS LGT RAIN  45  42  89 S8        29.79F
HOUGHTON LAKE  CLOUDY    41  31  67 S8        29.90F
MANISTEE       LGT RAIN  48  47  96 SE3       29.84S
OSCODA         CLOUDY    40  29  65 S9        29.90F WCI  34
PELLSTON       LGT RAIN  46  40  79 S9G23     29.79F
ROGERS CITY    CLOUDY    43  32  64 S16G23    29.83F
TRAVERSE CITY  LGT RAIN  47  43  86 VRB6      29.81F
$$
MIZ007>008-015-211200-
EASTERN UPPER MICHIGAN

CITY           SKY/WX    TMP DP  RH WIND       PRES   REMARKS
KINROSS        LGT RAIN  34  32  92 SE15      29.79F WCI  24
MACKINAC ISLAN LGT SNOW  36  36 100 SE5       29.79S WCI  32
NEWBERRY       CLOUDY    38  37  97 S16       29.71F WCI  29
S. S. MARIE    LGT RAIN  35  32  88 SE9       29.79F WCI  28
MUNISING         N/A     44  43  96 S8        29.69R
$$
MIZ004>006-011>014-085-211200-
CENTRAL UPPER MICHIGAN

CITY           SKY/WX    TMP DP  RH WIND       PRES   REMARKS
MANISTIQUE     CLOUDY    38  37  97 SW10G22   29.74R WCI  31
ESCANABA       CLOUDY    42  42 100 SW7       29.73S FOG
MENOMINEE      CLOUDY    50  49  96 SW6       29.78R FOG
SAWYER-GWINN   PTCLDY    44  43  97 SW12      29.69R FOG
$$
MIZ001>003-009>011-084-211200-
WESTERN UPPER MICHIGAN

CITY           SKY/WX    TMP DP  RH WIND       PRES   REMARKS
IRON MOUNTAIN  CLEAR     49  44  83 W8        29.72R
HOUGHTON       CLOUDY    39  35  86 W28G41    29.67R WCI  28
COPPER HARBOR    N/A     43  39  86 NW16G32   29.61R
IRONWOOD       PTCLDY    38  37  97 W12       29.77R WCI  30
$$

ABBREVIATIONS USED IN REMARKS
   TC - TEMPERATURE IN CELSIUS
  WCI - WIND CHILL INDEX
   HX - HEAT INDEX
  VSB - VISIBILITY





USA.gov is the U.S. government's official web portal to all federal, state and local government web resources and services.